Back to catalog

SL-3 DEB

AlivePO
NORAD 9663·DEBRIS·🇷🇺 Russia

Launched Jan 6, 1977 from Plesetsk Cosmodrome

Loading…

Next Passes (next 24 hours)

TLE

FreshSource: Space-Track

Epoch: Sep 14, 2026, 14:25 UTC

1 09663U 77002C   26257.60102820  .00000123  00000-0  71284-4 0  9993
2 09663  81.2682  21.7755 0008113 112.3725 247.8302 14.02806482542174

Track SL-3 DEB in real time with AllMySat

Download on the App Store